[[{"header":{"parameterUnit":"m.s-1","parameterCategory":1,"la1":30.2991,"la2":30.254,"lo1":-89.0895,"lo2":-89.0444,"dy":0.0017,"dx":0.0017,"nx":28,"ny":28,"refTime":"2024-02-24T09:00:00:Z","depth":0,"parameterNumber":2,"parameterNumberName":"U-component_of_WINDS"},"data":[0,0,0,0,0,0,0,0,0,0,0,0,0,0,0,0,0,0,0,0,0,0,0,0,0,0,0,0,0,0,0,0,0,0,0,0,0,0,0,0,0,0,0,0,0,0,0,0,0,0,0,0,0,0,0,0,0,0,-2.1135,-2.1135,0,-2.1139,-2.1139,-2.1139,-2.109,-2.1089,-2.1088,-2.1086,-2.1091,-2.1093,-2.1094,0,0,0,0,0,0,0,0,0,0,0,0,0,-2.1089,-2.109,-2.1135,-2.1135,-2.1135,-2.1139,-2.1139,-2.1139,-2.109,-2.1089,-2.1087,-2.1086,-2.1091,-2.1092,-2.1094,0,0,0,0,0,0,0,0,0,0,0,0,0,-2.1103,-2.109,-2.1135,-2.1111,-2.1109,-2.1139,-2.1139,-2.1139,-2.1091,-2.1089,-2.1087,-2.1085,-2.109,-2.1092,-2.1094,-2.1147,0,0,-2.1101,-2.1102,0,0,0,0,0,0,0,0,-2.1102,-2.1104,-2.1115,-2.1113,-2.1111,-2.1112,-2.1124,-2.1142,-2.1091,-2.1098,-2.1086,-2.1084,-2.11,-2.1101,-2.1106,-2.1147,-2.1148,-2.1101,-2.1102,-2.1103,-2.1104,0,0,0,0,0,0,0,-2.1101,-2.1104,-2.1137,-2.1115,-2.1113,-2.1102,-2.1101,-2.1128,-2.111,-2.1097,-2.1094,-2.1095,-2.1098,-2.1104,-2.1106,-2.1148,-2.1101,-2.1103,-2.1104,-2.1105,-2.1234,-2.1237,0,0,0,0,0,0,-2.1103,-2.1103,-2.1137,-2.1137,-2.1101,-2.1104,-2.1104,-2.1114,-2.111,-2.1107,-2.1096,-2.1092,-2.1102,-2.1104,-2.1106,-2.1168,-2.1103,-2.1105,-2.1106,-2.1232,-2.1235,-2.1237,0,0,0,0,0,0,-2.1102,-2.1106,-2.1136,-2.1119,-2.1122,-2.1107,-2.1119,-2.1115,-2.112,-2.1109,-2.1106,-2.1105,-2.11,-2.1103,-2.1138,-2.1167,-2.1106,-2.1108,-2.123,-2.1233,-2.1236,-2.1291,0,0,0,0,0,0,-2.1101,-2.1106,-2.1125,-2.112,-2.1123,-2.1167,-2.112,-2.1116,-2.1124,-2.1119,-2.1117,-2.1114,-2.1099,-2.1135,-2.114,-2.1169,-2.1109,-2.1227,-2.1231,-2.1235,-2.1287,-2.1296,-2.1304,0,0,0,0,0,-2.11,-2.1141,-2.1126,-2.1131,-2.1146,-2.1169,-2.1171,-2.1152,-2.1127,-2.1146,-2.1139,-2.1114,-2.1164,-2.1139,-2.1144,-2.1174,-2.1225,-2.123,-2.1235,-2.1283,-2.1294,-2.1304,0,0,0,0,0,0,-2.1149,-2.1139,-2.1123,-2.1164,-2.1168,-2.116,-2.1184,-2.1164,-2.1175,-2.117,-2.1147,-2.1147,-2.1185,-2.1184,-2.1156,-2.1226,-2.119,-2.1196,-2.1225,-2.1236,-2.1244,-2.1243,-2.1111,0,0,0,0,0,-2.1165,-2.1183,-2.1174,-2.1211,-2.1213,-2.1199,-2.1208,-2.1193,-2.1196,-2.1198,-2.1193,-2.1198,-2.1214,-2.1225,-2.124,-2.1288,-2.1287,-2.1312,-2.132,-2.1327,-2.1332,-2.1358,-2.1369,-2.1254,-2.1254,-2.1254,0,0,-2.1197,-2.1194,-2.1207,-2.122,-2.1221,-2.1242,-2.12,-2.1223,-2.1238,-2.1201,-2.1233,-2.1231,-2.1234,-2.1276,-2.1294,-2.1276,-2.1365,-2.1334,-2.134,-2.134,-2.1365,-2.1376,-2.1385,-2.1257,-2.1256,-2.1256,0,0,-2.1265,-2.1265,-2.1296,-2.1299,-2.1301,-2.1292,-2.13,-2.1297,-2.1293,-2.1326,-2.1299,-2.1318,-2.1346,-2.135,-2.1356,-2.1431,-2.1408,-2.1437,-2.1481,-2.1507,-2.1516,-2.1524,-2.155,-2.156,-2.1442,-2.1442,-2.1442,0,-2.1305,-2.1333,-2.1314,-2.1339,-2.1346,-2.1316,-2.1347,-2.1351,-2.1359,-2.1365,-2.1345,-2.1382,-2.1382,-2.1424,-2.1443,-2.1449,-2.1458,-2.1435,-2.1516,-2.1524,-2.1531,-2.1556,-2.1566,-2.1446,-2.1445,-2.1445,-2.1445,0,-2.1382,-2.1403,-2.1427,-2.1436,-2.1446,-2.1475,-2.1461,-2.1474,-2.146,-2.1454,-2.1488,-2.1488,-2.1503,-2.1513,-2.1499,-2.1554,-2.1542,-2.152,-2.1483,-2.1545,-2.1568,-2.1578,-2.145,-2.1449,-2.1448,-2.1447,0,0,-2.1477,-2.1477,-2.1486,-2.149,-2.1493,-2.1509,-2.1538,-2.1552,-2.1564,-2.1572,-2.1595,-2.1623,-2.1602,-2.1609,-2.1596,-2.1619,-2.1679,-2.1594,-2.1594,-2.1609,-2.174,-2.1755,-2.1766,-2.1665,-2.1667,-2.1669,-2.1739,0,-2.1543,-2.1589,-2.1575,-2.1622,-2.1642,-2.1615,-2.164,-2.1645,-2.1641,-2.1658,-2.1654,-2.1673,-2.1645,-2.1649,-2.1671,-2.1667,-2.1704,-2.1662,-2.1686,-2.1688,-2.1684,-2.1778,-2.1794,-2.186,-2.1748,-2.1749,-2.175,0,-2.1624,-2.1636,-2.1685,-2.1687,-2.1694,-2.1716,-2.173,-2.1746,-2.1753,-2.1749,-2.1758,-2.1742,-2.1771,-2.1737,-2.1777,-2.1748,-2.1759,-2.1759,-2.1761,-2.176,-2.1721,-2.1779,-2.1881,-2.189,-2.1764,-2.1763,-2.1762,0,-2.1687,-2.1716,-2.1749,-2.1754,-2.1756,-2.1773,-2.1775,-2.178,-2.179,-2.1803,-2.181,-2.1826,-2.1834,-2.1848,-2.1837,-2.1813,-2.1879,-2.1844,-2.1876,-2.1877,-2.1889,-2.1887,-2.1992,-2.1899,-2.1899,-2.1899,-2.1899,0,-2.1761,-2.1792,-2.1778,-2.1798,-2.1833,-2.1818,-2.1853,-2.1852,-2.1857,-2.1878,-2.1857,-2.1877,-2.1862,-2.1882,-2.1874,-2.1909,-2.1913,-2.1911,-2.1908,-2.1911,-2.1911,-2.1915,-2.1909,-2.1902,-2.1901,-2.19,-2.19,0,-2.1835,-2.1827,-2.1862,-2.1863,-2.1864,-2.1889,-2.1891,-2.191,-2.1906,-2.1933,-2.1938,-2.1932,-2.1954,-2.1946,-2.1969,-2.1964,-2.2008,-2.2,-2.2005,-2.2003,-2.2035,-2.2032,-2.2144,-2.2158,-2.2058,-2.2059,-2.206,0,-2.1881,-2.1904,-2.1908,-2.1921,-2.1924,-2.1945,-2.1956,-2.1943,-2.1956,-2.1967,-2.1986,-2.2006,-2.2021,-2.2059,-2.2056,-2.2075,-2.2066,-2.2105,-2.2069,-2.2072,-2.2065,-2.2063,-2.2065,-2.2111,-2.2112,-2.2113,-2.2113,0,-2.1963,-2.1958,-2.1975,-2.1991,-2.2005,-2.2017,-2.2027,-2.2039,-2.2028,-2.2043,-2.2066,-2.2078,-2.2103,-2.2123,-2.2141,-2.2144,-2.2127,-2.2126,-2.2134,-2.2136,-2.2137,-2.2136,-2.2023,-2.2122,-2.2121,-2.2121,-2.212,-2.212,-2.2023,-2.2043,-2.205,-2.2069,-2.2076,-2.2087,-2.2106,-2.2106,-2.2124,-2.2143,-2.2135,-2.2161,-2.217,-2.2192,-2.2198,-2.2219,-2.2204,-2.2217,-2.2219,-2.2222,-2.2226,-2.2137,-2.2223,-2.2223,-2.2222,-2.2222,-2.2222,0,-2.2102,-2.2106,-2.2125,-2.214,-2.2157,-2.2141,-2.2153,-2.2167,-2.219,-2.22,-2.2217,-2.2244,-2.2265,-2.2266,-2.2286,-2.2303,-2.2296,-2.2308,-2.2306,-2.2307,-2.2238,-2.2228,-2.2314,-2.2314,-2.2314,-2.2314,-2.2314,-2.2314,-2.2145,-2.2178,-2.2176,-2.2213,-2.2217,-2.2242,-2.225,-2.2261,-2.2269,-2.23,-2.2317,-2.2319,-2.2326,-2.2347,-2.2366,-2.2366,-2.2374,-2.2389,-2.2386,-2.2321,-2.2312,-2.2303,-2.2293,-2.2391,-2.2391,-2.2453,-2.2453,-2.2454]},{"header":{"parameterUnit":"m.s-1","parameterCategory":1,"la1":30.2991,"la2":30.254,"lo1":-89.0895,"lo2":-89.0444,"dy":0.0017,"dx":0.0017,"nx":28,"ny":28,"refTime":"2024-02-24T09:00:00:Z","depth":0,"parameterNumber":3,"parameterNumberName":"V-component_of_WINDS"},"data":[0,0,0,0,0,0,0,0,0,0,0,0,0,0,0,0,0,0,0,0,0,0,0,0,0,0,0,0,0,0,0,0,0,0,0,0,0,0,0,0,0,0,0,0,0,0,0,0,0,0,0,0,0,0,0,0,0,0,2.5717,2.5717,0,2.5702,2.5701,2.5701,2.573,2.5731,2.5732,2.5733,2.5711,2.571,2.5708,0,0,0,0,0,0,0,0,0,0,0,0,0,2.5767,2.5766,2.5717,2.5717,2.5716,2.5702,2.5701,2.5701,2.573,2.5731,2.5732,2.5733,2.5711,2.571,2.5708,0,0,0,0,0,0,0,0,0,0,0,0,0,2.5747,2.5765,2.5717,2.5729,2.573,2.5702,2.5701,2.5701,2.573,2.5731,2.5733,2.5734,2.5712,2.571,2.5708,2.5665,0,0,2.5701,2.57,0,0,0,0,0,0,0,0,2.5748,2.5745,2.5727,2.5728,2.5729,2.5719,2.5711,2.5689,2.5729,2.573,2.5733,2.5735,2.5712,2.571,2.5704,2.5664,2.5663,2.5701,2.5699,2.5698,2.5698,0,0,0,0,0,0,0,2.575,2.5746,2.5711,2.5727,2.5728,2.5734,2.5733,2.5707,2.5713,2.573,2.5732,2.573,2.5713,2.5706,2.5703,2.5662,2.5701,2.5699,2.5697,2.5697,2.5588,2.5587,0,0,0,0,0,0,2.575,2.5747,2.5711,2.571,2.5743,2.5732,2.5731,2.5721,2.5713,2.5713,2.5729,2.5731,2.5709,2.5706,2.5703,2.5653,2.5698,2.5696,2.5695,2.559,2.5588,2.5586,0,0,0,0,0,0,2.5751,2.5747,2.5712,2.5729,2.5725,2.573,2.5718,2.572,2.5713,2.5712,2.5713,2.5721,2.571,2.5706,2.5675,2.5652,2.5695,2.5693,2.5591,2.5589,2.5587,2.5551,0,0,0,0,0,0,2.5753,2.5747,2.5731,2.5729,2.5724,2.5685,2.5717,2.5718,2.571,2.5713,2.5705,2.5705,2.5711,2.5678,2.5673,2.565,2.5692,2.5593,2.559,2.5588,2.5554,2.5548,2.5543,0,0,0,0,0,2.5754,2.572,2.573,2.5726,2.5705,2.5683,2.5681,2.569,2.5708,2.5692,2.5692,2.5705,2.5656,2.5675,2.5669,2.5645,2.5595,2.5591,2.5588,2.5557,2.5549,2.5543,0,0,0,0,0,0,2.5717,2.572,2.5731,2.5696,2.569,2.5688,2.5668,2.5681,2.5668,2.5671,2.5681,2.5679,2.5646,2.5643,2.5663,2.5604,2.5628,2.5623,2.5607,2.56,2.5594,2.5594,2.569,0,0,0,0,0,2.5705,2.5689,2.5692,2.566,2.5657,2.5663,2.5654,2.5662,2.5655,2.5652,2.565,2.5641,2.5624,2.5612,2.5596,2.5555,2.5554,2.5536,2.553,2.5525,2.552,2.55,2.5492,2.5575,2.5575,2.5575,0,0,2.5679,2.5679,2.5667,2.5653,2.5649,2.5631,2.566,2.5639,2.5626,2.5648,2.5619,2.5617,2.5608,2.5573,2.5557,2.5569,2.5498,2.5521,2.5517,2.5515,2.5495,2.5487,2.548,2.5572,2.5573,2.5573,0,0,2.5623,2.5621,2.5595,2.5592,2.5587,2.5592,2.5586,2.5584,2.5584,2.5556,2.5573,2.5556,2.5526,2.552,2.5512,2.5457,2.5469,2.5452,2.542,2.5399,2.5393,2.5387,2.5367,2.536,2.5447,2.5447,2.5447,0,2.559,2.5565,2.5579,2.5558,2.5551,2.5574,2.5548,2.5543,2.5532,2.5526,2.5541,2.5505,2.5501,2.5464,2.5451,2.5445,2.5437,2.5451,2.5393,2.5388,2.5382,2.5363,2.5356,2.5445,2.5445,2.5446,2.5446,0,2.5526,2.5508,2.5488,2.548,2.5471,2.5447,2.5457,2.5446,2.5456,2.5459,2.543,2.5427,2.5411,2.5403,2.5411,2.5368,2.5376,2.5392,2.5416,2.5372,2.5354,2.5347,2.5442,2.5443,2.5444,2.5444,0,0,2.5442,2.5445,2.5437,2.5435,2.5432,2.5418,2.5396,2.5383,2.5374,2.5366,2.5347,2.5323,2.5339,2.533,2.5338,2.5321,2.5278,2.5338,2.5338,2.5327,2.523,2.5218,2.5209,2.5287,2.5286,2.5285,2.5231,0,2.5386,2.5349,2.5363,2.5324,2.5309,2.5332,2.5312,2.5308,2.5312,2.5298,2.5301,2.5284,2.5306,2.5301,2.5285,2.5286,2.5258,2.5291,2.5268,2.5267,2.5268,2.52,2.5186,2.5135,2.5224,2.5223,2.5222,0,2.5314,2.5307,2.5268,2.5271,2.5265,2.5247,2.5238,2.5225,2.5221,2.5225,2.5218,2.523,2.5208,2.5234,2.5203,2.5225,2.5217,2.5217,2.5215,2.5211,2.524,2.5194,2.5119,2.5111,2.5212,2.5212,2.5213,0,2.5257,2.5237,2.5212,2.5209,2.5211,2.5199,2.5199,2.5197,2.5189,2.5181,2.5176,2.5164,2.5157,2.5147,2.5156,2.5175,2.5124,2.5151,2.5125,2.5125,2.5111,2.5112,2.5034,2.5109,2.5109,2.5109,2.5109,0,2.5192,2.5166,2.5186,2.517,2.5143,2.516,2.5132,2.5134,2.5133,2.5118,2.5137,2.5121,2.5135,2.5121,2.5128,2.5101,2.5098,2.51,2.5101,2.5097,2.5097,2.509,2.5093,2.5107,2.5107,2.5108,2.5108,0,2.5121,2.5134,2.5107,2.5114,2.5115,2.5094,2.5099,2.5084,2.509,2.507,2.5067,2.5076,2.506,2.5069,2.5053,2.5058,2.5023,2.503,2.5024,2.5026,2.5,2.5002,2.4913,2.4902,2.4985,2.4984,2.4984,0,2.5078,2.506,2.5065,2.5057,2.5057,2.5044,2.5037,2.5053,2.5045,2.5042,2.5027,2.5014,2.5004,2.4978,2.4982,2.497,2.4977,2.4947,2.4974,2.4971,2.4975,2.4976,2.4974,2.494,2.4939,2.4938,2.4938,0,2.5,2.5008,2.4999,2.4992,2.4984,2.4979,2.4975,2.4967,2.4984,2.4973,2.4959,2.4952,2.4937,2.4924,2.4914,2.4913,2.4928,2.493,2.4923,2.4917,2.4915,2.4916,2.5008,2.4931,2.4932,2.4932,2.4932,2.4933,2.4941,2.4927,2.4929,2.4918,2.4918,2.4915,2.4902,2.4908,2.4898,2.4888,2.4898,2.4881,2.488,2.4869,2.4867,2.4853,2.4865,2.4855,2.4852,2.4849,2.4846,2.4919,2.4851,2.4852,2.4852,2.4852,2.4852,0,2.4864,2.4868,2.4858,2.4854,2.4845,2.4864,2.4861,2.4852,2.4838,2.4837,2.4828,2.4812,2.48,2.4805,2.4794,2.4783,2.4789,2.4779,2.4779,2.4779,2.4836,2.4843,2.4774,2.4774,2.4774,2.4774,2.4774,2.4774,2.4823,2.48,2.4808,2.4785,2.4789,2.4774,2.4771,2.4768,2.4768,2.475,2.4741,2.4746,2.4747,2.4737,2.4727,2.4728,2.4723,2.471,2.4714,2.4767,2.4775,2.4782,2.4788,2.4709,2.4709,2.4658,2.4658,2.4657]}]]